Cocobeach Airport


Codes: FOOC/
Name: Cocobeach Airport
City: Cocobeach
Country: Gabon
Elevation: 69 ft.

Photos at Cocobeach Airport


   Photos courtesy of SpottingLog. You can add your own sightings and photos by signing up for a free trial today.



No photos found.

Weather at Cocobeach Airport


Time (UTC)DescriptionTempratureWindCloud coverageVisibilityPressureHumidity
25-Jun-2024 15:00Light Rain25°C7 mph, SW100%6896m1011hPa84%
25-Jun-2024 18:00Moderate Rain25°C7 mph, W100%10000m1011hPa86%
25-Jun-2024 21:00Light Rain25°C7 mph, W99%10000m1012hPa86%
26-Jun-2024 00:00Overcast Clouds25°C7 mph, SW99%10000m1012hPa86%
26-Jun-2024 03:00Light Rain25°C7 mph, SW100%10000m1011hPa87%
26-Jun-2024 06:00Light Rain25°C7 mph, SW100%10000m1013hPa86%
26-Jun-2024 09:00Overcast Clouds26°C7 mph, SW87%10000m1014hPa82%
26-Jun-2024 12:00Broken Clouds26°C9 mph, W84%10000m1012hPa80%
26-Jun-2024 15:00Broken Clouds26°C11 mph, SW64%10000m1010hPa79%
26-Jun-2024 18:00Broken Clouds25°C9 mph, SW77%10000m1012hPa83%
26-Jun-2024 21:00Overcast Clouds25°C9 mph, SW100%10000m1013hPa84%
27-Jun-2024 00:00Light Rain25°C9 mph, SW100%10000m1012hPa84%
27-Jun-2024 03:00Overcast Clouds25°C7 mph, SW100%10000m1012hPa85%
27-Jun-2024 06:00Overcast Clouds24°C4 mph, S100%10000m1012hPa85%
27-Jun-2024 09:00Overcast Clouds25°C2 mph, SW100%10000m1013hPa83%
27-Jun-2024 12:00Overcast Clouds26°C7 mph, W99%10000m1012hPa80%
27-Jun-2024 15:00Broken Clouds26°C7 mph, W84%10000m1011hPa80%
27-Jun-2024 18:00Overcast Clouds25°C7 mph, SW87%10000m1012hPa84%
27-Jun-2024 21:00Overcast Clouds25°C4 mph, SW88%10000m1014hPa85%
28-Jun-2024 00:00Overcast Clouds24°C4 mph, SW89%10000m1013hPa86%
28-Jun-2024 03:00Overcast Clouds24°C4 mph, S93%10000m1012hPa87%
28-Jun-2024 06:00Overcast Clouds24°C9 mph, S91%10000m1013hPa87%
28-Jun-2024 09:00Light Rain26°C9 mph, S100%10000m1014hPa80%
28-Jun-2024 12:00Overcast Clouds26°C9 mph, SW97%10000m1013hPa78%
28-Jun-2024 15:00Broken Clouds26°C11 mph, SW79%10000m1011hPa79%
28-Jun-2024 18:00Broken Clouds25°C11 mph, SW72%10000m1013hPa83%
28-Jun-2024 21:00Overcast Clouds24°C9 mph, SW100%10000m1015hPa83%
29-Jun-2024 00:00Light Rain24°C9 mph, SW100%10000m1014hPa84%
29-Jun-2024 03:00Light Rain24°C7 mph, SW100%10000m1013hPa82%
29-Jun-2024 06:00Overcast Clouds24°C4 mph, SW100%10000m1014hPa81%
29-Jun-2024 09:00Overcast Clouds25°C7 mph, SW100%10000m1015hPa77%
29-Jun-2024 12:00Overcast Clouds26°C9 mph, SW94%10000m1013hPa75%
29-Jun-2024 15:00Broken Clouds25°C11 mph, SW60%10000m1012hPa78%
29-Jun-2024 18:00Broken Clouds24°C11 mph, SW54%10000m1013hPa80%
29-Jun-2024 21:00Overcast Clouds24°C7 mph, SW100%10000m1015hPa80%
30-Jun-2024 00:00Overcast Clouds24°C9 mph, SW100%10000m1015hPa79%
30-Jun-2024 03:00Overcast Clouds24°C7 mph, SW100%10000m1014hPa79%
30-Jun-2024 06:00Overcast Clouds24°C4 mph, S100%10000m1014hPa77%
30-Jun-2024 09:00Overcast Clouds25°C4 mph, S100%10000m1016hPa72%
30-Jun-2024 12:00Overcast Clouds25°C7 mph, S100%10000m1014hPa74%